Location: Unspecified
(0.0000°N, 0.0000°E)
Time: 17:33:56
(UTC+02:00)

Orbus 21S - Visible Passes

Search period start: 26 June 2016 00:00
Search period end: 06 July 2016 00:00
Orbit: 320 x 33098 km, 24.1° (Epoch: 26 June)

Date Brightness Start Highest point End Pass type
(mag) Time Alt. Az. Time Alt. Az. Time Alt. Az.
26 Jun 6.4 12:57:50 10° W 20:30:20 59° ESE 21:58:50 10° ENE visible
27 Jun 6.8 18:34:45 10° WSW 20:43:10 44° SW 03:23:45 10° NNE visible
28 Jun 6.8 13:29:01 10° W 21:09:55 69° ESE 22:32:07 10° ENE visible
29 Jun 6.6 19:12:57 10° WSW 21:10:10 36° WSW 03:54:00 10° NNE visible
30 Jun 7.2 14:00:27 10° W 21:54:42 80° SE 23:04:35 10° ENE visible
01 Jul 6.4 19:54:37 10° WSW 21:38:02 28° WSW 04:23:58 10° N visible
02 Jul 7.6 14:32:10 10° WSW 22:44:54 89° SE 23:36:29 10° ENE visible
03 Jul 10.7 20:43:14 10° WSW 22:06:06 19° WSW 00:32:40 10° WSW visible
04 Jul 6.3 04:45:51 10° NW 04:50:06 11° NW 04:52:50 10° NNW visible
04 Jul 7.4 15:04:13 10° WSW 21:11:03 72° SSW 00:07:58 10° NE visible
05 Jul 11.0 21:58:11 10° WSW 22:34:06 11° WSW 23:18:10 10° WSW visible
05 Jul 11.0 21:58:12 10° WSW 22:34:06 11° WSW 23:18:11 10° WSW visible
05 Jul 11.0 21:58:12 10° WSW 22:34:06 11° WSW 23:18:10 10° WSW visible
